[[{"header":{"parameterUnit":"m.s-1","parameterCategory":1,"la1":30.2991,"la2":30.254,"lo1":-89.0895,"lo2":-89.0444,"dy":0.0017,"dx":0.0017,"nx":28,"ny":28,"refTime":"2024-06-07T03:00:00:Z","depth":0,"parameterNumber":2,"parameterNumberName":"U-component_of_WINDS"},"data":[0,0,0,0,0,0,0,0,0,0,0,0,0,0,0,0,0,0,0,0,0,0,0,0,0,0,0,0,0,0,0,0,0,0,0,0,0,0,0,0,0,0,0,0,0,0,0,0,0,0,0,0,0,0,0,0,0,0,-0.3745,-0.3743,0,-0.3606,-0.3604,-0.3603,-0.3541,-0.3541,-0.3542,-0.3542,-0.3397,-0.3393,-0.339,0,0,0,0,0,0,0,0,0,0,0,0,0,-0.3956,-0.3953,-0.3745,-0.3743,-0.3742,-0.3606,-0.3604,-0.3602,-0.3541,-0.3541,-0.3542,-0.3542,-0.3399,-0.3394,-0.3389,0,0,0,0,0,0,0,0,0,0,0,0,0,-0.3846,-0.3952,-0.3745,-0.3695,-0.3689,-0.3606,-0.3604,-0.3602,-0.3541,-0.3541,-0.3542,-0.3542,-0.34,-0.3394,-0.3388,-0.3345,0,0,-0.337,-0.3367,0,0,0,0,0,0,0,0,-0.3852,-0.3838,-0.3704,-0.3698,-0.3691,-0.3591,-0.3626,-0.3516,-0.3541,-0.3597,-0.3542,-0.3542,-0.3462,-0.345,-0.3424,-0.3339,-0.3332,-0.3369,-0.3366,-0.3363,-0.3362,0,0,0,0,0,0,0,-0.386,-0.3843,-0.369,-0.3702,-0.3694,-0.3679,-0.3663,-0.3604,-0.3529,-0.3592,-0.3588,-0.3572,-0.3458,-0.343,-0.342,-0.333,-0.337,-0.3364,-0.3361,-0.3358,-0.3202,-0.3202,0,0,0,0,0,0,-0.3876,-0.385,-0.3694,-0.3686,-0.3774,-0.3675,-0.3657,-0.3623,-0.353,-0.3516,-0.3572,-0.357,-0.344,-0.3427,-0.3415,-0.3357,-0.3363,-0.3358,-0.3354,-0.3203,-0.3202,-0.3201,0,0,0,0,0,0,-0.3881,-0.3863,-0.37,-0.3767,-0.3745,-0.3671,-0.3633,-0.362,-0.3592,-0.3514,-0.3501,-0.3557,-0.344,-0.3423,-0.3363,-0.3351,-0.3355,-0.3349,-0.3203,-0.3202,-0.3202,-0.3243,0,0,0,0,0,0,-0.3887,-0.3865,-0.3848,-0.3767,-0.3741,-0.3651,-0.3632,-0.3617,-0.3582,-0.3577,-0.3496,-0.3483,-0.3438,-0.3372,-0.3357,-0.3343,-0.3345,-0.3204,-0.3203,-0.3202,-0.3242,-0.3244,-0.3245,0,0,0,0,0,-0.3895,-0.3865,-0.3847,-0.3829,-0.3719,-0.3651,-0.3636,-0.3586,-0.3581,-0.3563,-0.3514,-0.3486,-0.3356,-0.3367,-0.3349,-0.3333,-0.3204,-0.3203,-0.3202,-0.3242,-0.3244,-0.3245,0,0,0,0,0,0,-0.3946,-0.3853,-0.3833,-0.3776,-0.3722,-0.3641,-0.3617,-0.3589,-0.3535,-0.3533,-0.3472,-0.3455,-0.34,-0.336,-0.3375,-0.3286,-0.3278,-0.3273,-0.3314,-0.3315,-0.3316,-0.3326,-0.334,0,0,0,0,0,-0.3951,-0.3904,-0.3825,-0.3782,-0.3756,-0.3691,-0.366,-0.3626,-0.3567,-0.3543,-0.3489,-0.3433,-0.3379,-0.3345,-0.3291,-0.3237,-0.3218,-0.3217,-0.3219,-0.322,-0.3216,-0.3184,-0.3183,-0.3198,-0.3198,-0.3198,0,0,-0.396,-0.3903,-0.3877,-0.3791,-0.3745,-0.3697,-0.3672,-0.3623,-0.3586,-0.3536,-0.3476,-0.3434,-0.3367,-0.331,-0.3282,-0.3275,-0.3208,-0.3219,-0.322,-0.3216,-0.3183,-0.3181,-0.318,-0.3197,-0.3197,-0.3197,0,0,-0.3952,-0.3905,-0.3864,-0.3818,-0.3749,-0.3706,-0.3697,-0.3619,-0.359,-0.3529,-0.349,-0.3446,-0.3355,-0.3308,-0.3273,-0.3248,-0.322,-0.3232,-0.3238,-0.3208,-0.3207,-0.3205,-0.3196,-0.3193,-0.3229,-0.3229,-0.3229,0,-0.3972,-0.3898,-0.3846,-0.3798,-0.3761,-0.3714,-0.3672,-0.363,-0.3547,-0.3522,-0.3516,-0.3401,-0.3352,-0.3283,-0.3277,-0.325,-0.3237,-0.324,-0.3211,-0.3209,-0.3207,-0.3197,-0.3194,-0.3231,-0.323,-0.323,-0.323,0,-0.3926,-0.3875,-0.385,-0.3772,-0.3732,-0.3687,-0.3628,-0.3594,-0.3564,-0.3521,-0.346,-0.34,-0.3333,-0.3314,-0.3284,-0.3241,-0.3239,-0.3223,-0.3213,-0.3209,-0.3198,-0.3194,-0.3233,-0.3233,-0.3232,-0.3232,0,0,-0.3945,-0.3839,-0.383,-0.3794,-0.3714,-0.3674,-0.3627,-0.3563,-0.3534,-0.3479,-0.3437,-0.3362,-0.3346,-0.3306,-0.327,-0.3244,-0.3227,-0.3231,-0.3228,-0.3231,-0.3175,-0.3187,-0.3184,-0.3209,-0.3208,-0.3207,-0.3181,0,-0.3926,-0.384,-0.3792,-0.3726,-0.3678,-0.3633,-0.3592,-0.3539,-0.3498,-0.3451,-0.3406,-0.3353,-0.3337,-0.3313,-0.3284,-0.3235,-0.3215,-0.3236,-0.3169,-0.3167,-0.3186,-0.3178,-0.3191,-0.3169,-0.3176,-0.3176,-0.3175,0,-0.3892,-0.3837,-0.3767,-0.3692,-0.3671,-0.3635,-0.3571,-0.3528,-0.3466,-0.3438,-0.3394,-0.3358,-0.3306,-0.3301,-0.3229,-0.3245,-0.3214,-0.3186,-0.3184,-0.3175,-0.317,-0.3168,-0.316,-0.3157,-0.3168,-0.3169,-0.3169,0,-0.3912,-0.3821,-0.3767,-0.3738,-0.365,-0.3626,-0.3588,-0.3526,-0.3491,-0.3435,-0.3411,-0.3351,-0.3317,-0.3271,-0.3219,-0.3221,-0.3152,-0.3143,-0.3127,-0.3128,-0.3114,-0.3115,-0.31,-0.3096,-0.3096,-0.3096,-0.3096,0,-0.3895,-0.3854,-0.3775,-0.3742,-0.3694,-0.3639,-0.3593,-0.3551,-0.3497,-0.3455,-0.3412,-0.3373,-0.3308,-0.326,-0.322,-0.3166,-0.3151,-0.3127,-0.3116,-0.313,-0.3133,-0.3109,-0.3109,-0.3095,-0.3095,-0.3095,-0.3095,0,-0.391,-0.3856,-0.3794,-0.3716,-0.3695,-0.3663,-0.3596,-0.3562,-0.3519,-0.3466,-0.345,-0.3383,-0.3325,-0.327,-0.3192,-0.3165,-0.3111,-0.3098,-0.3132,-0.3126,-0.3113,-0.3115,-0.3081,-0.3074,-0.3076,-0.3076,-0.3076,0,-0.3902,-0.3869,-0.3788,-0.3756,-0.372,-0.367,-0.3633,-0.3577,-0.3541,-0.3468,-0.3443,-0.3382,-0.333,-0.324,-0.3184,-0.3124,-0.3109,-0.3101,-0.3099,-0.3114,-0.3108,-0.311,-0.3106,-0.3102,-0.3102,-0.3103,-0.3103,0,-0.3894,-0.3869,-0.3818,-0.3757,-0.3715,-0.3664,-0.3612,-0.3589,-0.3524,-0.3485,-0.3425,-0.3385,-0.3306,-0.3246,-0.318,-0.3141,-0.3111,-0.3104,-0.3097,-0.311,-0.3131,-0.3119,-0.3135,-0.3105,-0.3104,-0.3104,-0.3104,-0.3104,-0.3897,-0.3865,-0.3803,-0.3747,-0.3702,-0.3655,-0.3619,-0.3572,-0.3521,-0.3453,-0.3423,-0.3363,-0.3302,-0.3211,-0.3172,-0.3123,-0.3116,-0.3106,-0.3104,-0.3102,-0.3105,-0.314,-0.3111,-0.3111,-0.3111,-0.3111,-0.3111,0,-0.3886,-0.3844,-0.3793,-0.3722,-0.3678,-0.3654,-0.3595,-0.356,-0.3508,-0.3454,-0.3404,-0.3336,-0.3277,-0.3217,-0.3155,-0.3128,-0.3113,-0.3114,-0.3115,-0.3106,-0.3115,-0.3127,-0.3127,-0.3127,-0.3127,-0.3127,-0.3127,-0.3127,-0.3875,-0.382,-0.3788,-0.371,-0.3668,-0.3609,-0.3577,-0.3533,-0.3489,-0.3415,-0.3367,-0.3328,-0.3271,-0.3205,-0.315,-0.3134,-0.3113,-0.3117,-0.3097,-0.3106,-0.3106,-0.3105,-0.3115,-0.3114,-0.3114,-0.3092,-0.3092,-0.3092]},{"header":{"parameterUnit":"m.s-1","parameterCategory":1,"la1":30.2991,"la2":30.254,"lo1":-89.0895,"lo2":-89.0444,"dy":0.0017,"dx":0.0017,"nx":28,"ny":28,"refTime":"2024-06-07T03:00:00:Z","depth":0,"parameterNumber":3,"parameterNumberName":"V-component_of_WINDS"},"data":[0,0,0,0,0,0,0,0,0,0,0,0,0,0,0,0,0,0,0,0,0,0,0,0,0,0,0,0,0,0,0,0,0,0,0,0,0,0,0,0,0,0,0,0,0,0,0,0,0,0,0,0,0,0,0,0,0,0,3.8381,3.8381,0,3.8373,3.8373,3.8373,3.837,3.837,3.837,3.837,3.836,3.836,3.8359,0,0,0,0,0,0,0,0,0,0,0,0,0,3.839,3.839,3.8381,3.8381,3.8381,3.8373,3.8373,3.8373,3.837,3.837,3.837,3.837,3.836,3.836,3.8359,0,0,0,0,0,0,0,0,0,0,0,0,0,3.8385,3.839,3.8381,3.8378,3.8378,3.8373,3.8373,3.8373,3.837,3.837,3.837,3.837,3.836,3.836,3.8359,3.8355,0,0,3.8358,3.8358,0,0,0,0,0,0,0,0,3.8385,3.8385,3.8379,3.8379,3.8378,3.8373,3.8373,3.8367,3.837,3.8373,3.837,3.837,3.8364,3.8363,3.8362,3.8355,3.8355,3.8358,3.8357,3.8357,3.8357,0,0,0,0,0,0,0,3.8386,3.8385,3.8378,3.8379,3.8378,3.8377,3.8376,3.8372,3.8368,3.8373,3.8373,3.8372,3.8364,3.8362,3.8361,3.8354,3.8358,3.8357,3.8357,3.8357,3.8345,3.8345,0,0,0,0,0,0,3.8387,3.8385,3.8378,3.8378,3.8382,3.8377,3.8376,3.8375,3.8368,3.8368,3.8372,3.8372,3.8363,3.8362,3.8361,3.8357,3.8357,3.8357,3.8357,3.8345,3.8345,3.8345,0,0,0,0,0,0,3.8387,3.8386,3.8378,3.8381,3.838,3.8377,3.8375,3.8374,3.8373,3.8368,3.8367,3.8371,3.8363,3.8362,3.8357,3.8356,3.8357,3.8356,3.8345,3.8345,3.8345,3.8348,0,0,0,0,0,0,3.8387,3.8386,3.8385,3.8381,3.838,3.8375,3.8375,3.8374,3.8372,3.8372,3.8367,3.8366,3.8363,3.8358,3.8357,3.8356,3.8356,3.8345,3.8345,3.8345,3.8348,3.8348,3.8349,0,0,0,0,0,3.8388,3.8385,3.8385,3.8384,3.8379,3.8375,3.8375,3.8372,3.8372,3.8371,3.8368,3.8366,3.8357,3.8358,3.8356,3.8355,3.8345,3.8345,3.8345,3.8348,3.8348,3.8349,0,0,0,0,0,0,3.8388,3.8385,3.8384,3.8381,3.8379,3.8375,3.8373,3.8372,3.8369,3.8369,3.8365,3.8364,3.836,3.8357,3.8358,3.8352,3.8351,3.8351,3.8354,3.8354,3.8354,3.8355,3.8355,0,0,0,0,0,3.8388,3.8386,3.8383,3.8381,3.8379,3.8377,3.8375,3.8374,3.837,3.8369,3.8365,3.8362,3.8358,3.8356,3.8352,3.8348,3.8347,3.8347,3.8347,3.8347,3.8347,3.8345,3.8345,3.8345,3.8345,3.8345,0,0,3.8387,3.8385,3.8384,3.8381,3.8378,3.8376,3.8376,3.8373,3.8371,3.8368,3.8364,3.8362,3.8357,3.8354,3.8352,3.8351,3.8346,3.8347,3.8347,3.8346,3.8345,3.8345,3.8345,3.8345,3.8345,3.8345,0,0,3.8385,3.8383,3.8381,3.838,3.8377,3.8376,3.8375,3.8372,3.837,3.8367,3.8365,3.8362,3.8356,3.8353,3.8351,3.8349,3.8347,3.8348,3.8349,3.8347,3.8347,3.8347,3.8347,3.8347,3.8348,3.8348,3.8348,0,3.8384,3.8381,3.838,3.8378,3.8377,3.8376,3.8373,3.8372,3.8367,3.8366,3.8366,3.8359,3.8356,3.8352,3.8352,3.835,3.8349,3.8349,3.8347,3.8347,3.8347,3.8347,3.8347,3.8348,3.8348,3.8348,3.8348,0,3.8381,3.8379,3.8378,3.8375,3.8374,3.8372,3.837,3.8368,3.8367,3.8365,3.8362,3.8359,3.8355,3.8353,3.8352,3.8349,3.8349,3.8348,3.8347,3.8347,3.8347,3.8347,3.8348,3.8348,3.8348,3.8348,0,0,3.8378,3.8376,3.8375,3.8375,3.8372,3.8371,3.8368,3.8366,3.8365,3.8362,3.836,3.8356,3.8355,3.8353,3.8351,3.835,3.8349,3.8349,3.8349,3.8349,3.8347,3.8348,3.8347,3.8348,3.8348,3.8348,3.8347,0,3.8375,3.8373,3.8372,3.8369,3.8368,3.8367,3.8365,3.8364,3.8362,3.836,3.8358,3.8355,3.8355,3.8353,3.8352,3.8349,3.8348,3.8349,3.8346,3.8346,3.8347,3.8347,3.8348,3.8347,3.8347,3.8347,3.8347,0,3.8372,3.8371,3.8369,3.8367,3.8367,3.8365,3.8363,3.8362,3.836,3.8359,3.8357,3.8355,3.8353,3.8353,3.8349,3.835,3.8349,3.8347,3.8347,3.8346,3.8346,3.8347,3.8347,3.8347,3.8347,3.8347,3.8347,0,3.837,3.8368,3.8367,3.8366,3.8365,3.8364,3.8363,3.8361,3.836,3.8358,3.8357,3.8355,3.8353,3.8351,3.8349,3.8349,3.8346,3.8345,3.8345,3.8345,3.8344,3.8344,3.8344,3.8343,3.8343,3.8343,3.8343,0,3.8368,3.8366,3.8366,3.8365,3.8364,3.8363,3.8362,3.8361,3.8359,3.8358,3.8357,3.8355,3.8353,3.8351,3.8349,3.8347,3.8346,3.8345,3.8344,3.8345,3.8345,3.8344,3.8344,3.8343,3.8343,3.8343,3.8343,0,3.8365,3.8365,3.8364,3.8363,3.8363,3.8362,3.8361,3.836,3.8359,3.8358,3.8357,3.8355,3.8353,3.8351,3.8348,3.8347,3.8345,3.8344,3.8346,3.8345,3.8345,3.8345,3.8344,3.8344,3.8343,3.8343,3.8343,0,3.8364,3.8363,3.8363,3.8362,3.8362,3.8361,3.836,3.836,3.8359,3.8357,3.8357,3.8355,3.8353,3.835,3.8348,3.8346,3.8345,3.8345,3.8344,3.8346,3.8345,3.8345,3.8346,3.8345,3.8345,3.8345,3.8345,0,3.8361,3.8361,3.8361,3.8361,3.836,3.836,3.8359,3.8358,3.8358,3.8357,3.8356,3.8355,3.8352,3.835,3.8348,3.8347,3.8346,3.8345,3.8345,3.8345,3.8347,3.8346,3.8346,3.8345,3.8345,3.8345,3.8345,3.8345,3.8359,3.8359,3.8359,3.8358,3.8358,3.8358,3.8358,3.8357,3.8356,3.8355,3.8355,3.8354,3.8352,3.8349,3.8348,3.8347,3.8346,3.8346,3.8346,3.8346,3.8346,3.8347,3.8346,3.8346,3.8346,3.8346,3.8346,0,3.8356,3.8357,3.8357,3.8357,3.8357,3.8357,3.8357,3.8356,3.8355,3.8355,3.8354,3.8353,3.8351,3.835,3.8348,3.8348,3.8347,3.8347,3.8347,3.8347,3.8346,3.8347,3.8348,3.8348,3.8348,3.8348,3.8348,3.8348,3.8355,3.8355,3.8355,3.8355,3.8355,3.8355,3.8355,3.8355,3.8354,3.8353,3.8353,3.8352,3.8351,3.835,3.8349,3.8348,3.8348,3.8348,3.8347,3.8347,3.8347,3.8347,3.8347,3.8348,3.8348,3.8348,3.8348,3.8348]}]]